Dryden, TX

11:45 PM CST on January 16, 2018 (GMT -0600)
Dryden

Weather History for K6R6 - June, 2013

Change the Weather History Date:

Saturday, June 29, 2013

  Actual Average (KFST) Record (KFST)
Temperature  
Mean Temperature 94 °F -  
Max Temperature 111 °F 93 °F 108 °F (2017)
Min Temperature 79 °F 68 °F 63 °F (2007)
Cooling Degree Days 29    
Growing Degree Days 44 (Base 50)    
Moisture  
Dew Point 47 °F    
Average Humidity 21    
Maximum Humidity 35    
Minimum Humidity 11    
Precipitation  
Precipitation 0.00 in - - ()
Sea Level Pressure  
Sea Level Pressure 29.79 in    
Wind  
Wind Speed 3 mph (East)    
Max Wind Speed 13 mph    
Max Gust Speed 18 mph    
Averages and records for this station are not official NWS values.
T = Trace of Precipitation, MM = Missing Value Source: NWS Daily Summary

Daily Weather History Graph

Daily Weather History Graph

Search for Another Location

Airport or City:

Trip Planner

Search our weather history database for the weather conditions in past years. The results will help you decide how hot, cold, wet, or windy it might be!

Date:

Astronomy

Jun. 29, 2013 Rise Set
Actual Time 6:50 AM CDT 8:54 PM CDT
Civil Twilight 6:23 AM CDT 9:21 PM CDT
Nautical Twilight 5:49 AM CDT 9:54 PM CDT
Astronomical Twilight 5:14 AM CDT 10:30 PM CDT
Moon 12:54 AM CDT (6/29) 1:31 PM CDT (6/29)
Length of Visible Light 14h 58m
Length of Day
14h 03m
Waning Gibbous, 55% of the Moon is Illuminated
Jun 29
Waning Gibbous
Jun 29
Last Quarter
Jul 8
New
Jul 15
First Quarter
Jul 22
Full

Hourly Weather History & Observations

Time (CDT) Temp. Dew Point Humidity Pressure Visibility Wind Dir Wind Speed Gust Speed Precip Events Conditions
12:53 AM 84.9 °F 48.9 °F 29% 29.82 in - Calm Calm - N/A   Unknown
1:53 AM 82.0 °F 48.9 °F 31% 29.81 in - NNW 3.5 mph - N/A   Unknown
2:53 AM 82.9 °F 48.0 °F 29% 29.81 in - North 4.6 mph - N/A   Unknown
3:53 AM 81.0 °F 48.9 °F 33% 29.81 in - NW 3.5 mph - N/A   Unknown
4:53 AM 79.0 °F 48.9 °F 35% 29.81 in - WNW 3.5 mph - N/A   Unknown
5:53 AM 80.1 °F 48.9 °F 34% 29.82 in - Calm Calm - N/A   Unknown
6:53 AM 79.0 °F 48.9 °F 35% 29.84 in - Calm Calm - N/A   Unknown
7:53 AM 82.9 °F 48.9 °F 31% 29.86 in - NNE 3.5 mph - N/A   Unknown
8:53 AM 91.0 °F 51.1 °F 25% 29.86 in - NE 4.6 mph - N/A   Unknown
9:53 AM 93.9 °F 51.1 °F 23% 29.85 in - Calm Calm - N/A   Unknown
10:53 AM 98.1 °F 50.0 °F 20% 29.84 in - Variable 3.5 mph - N/A   Unknown
11:53 AM 104.0 °F 52.0 °F 18% 29.84 in - Calm Calm - N/A   Unknown
12:53 PM 104.0 °F 50.0 °F 16% 29.83 in - Calm Calm - N/A   Unknown
1:53 PM 107.1 °F 46.9 °F 13% 29.80 in - Calm Calm - N/A   Unknown
2:53 PM 108.0 °F 42.1 °F 11% 29.78 in - SE 8.1 mph - N/A   Unknown
3:53 PM 109.9 °F 44.1 °F 11% 29.75 in - ENE 8.1 mph - N/A   Unknown
4:53 PM 109.9 °F 45.0 °F 11% 29.74 in - East 12.7 mph 18.4 mph N/A   Unknown
5:53 PM 108.0 °F 43.0 °F 11% 29.71 in - Variable 6.9 mph 18.4 mph N/A   Unknown
6:53 PM 107.1 °F 43.0 °F 11% 29.70 in - South 8.1 mph - N/A   Unknown
7:53 PM 106.0 °F 43.0 °F 12% 29.70 in - South 8.1 mph - N/A   Unknown
8:53 PM 100.9 °F 44.1 °F 14% 29.70 in - SSE 6.9 mph - N/A   Unknown
9:53 PM 97.0 °F 45.0 °F 17% 29.71 in - South 5.8 mph - N/A   Unknown
10:53 PM 91.9 °F 44.1 °F 19% 29.73 in - SE 6.9 mph - N/A   Unknown
11:53 PM 89.1 °F 45.0 °F 22% 29.73 in - Calm Calm - N/A   Unknown